DECAYED

FENGYUN 1C DEB, 31203 (Decayed)

Orbit data source: Space-Track

FENGYUN 1C DEB, 31203 was space debris in SSO originally from a launch on Mon, 10 May 1999 UTC launched from the Taiyaun Space Center, China (TSC). Fengyun 1C debris stems from the Chinese weather satellite Fengyun-1C, which was intentionally destroyed by a Chinese anti-satellite missile in 2007. This event dramatically increased the amount of space debris, with thousands of trackable fragments posing hazards to satellites and human spaceflight. The Fengyun 1C debris cloud has become a focal point in discussions about space sustainability and the need for international regulations to prevent the creation of new debris.

Loading next visibility...
Identifier
31203, 1999-025BKH
Orbit
Decayed
Country
Flag of CNCN / PRC
Related business
Manufacturer
Unknown
Mission
Decayed spacecraft
Bus & Motor
Unknown
Mass
Unknown
Launch date (UTC)
1999-05-10 (27 years ago)
Launch vehicle
Unknown
Launch site
Taiyaun Space Center, China (TSC)
Object type
Payload
Rocket body
Debris
Shape & HBR
Unknown shape, 1.1 m
Radar Cross Section
Medium (>0.1 m² and <1 m²)

Expand to show TLE details & history
Last TLE update: 1 year ago

TLE from 1 year ago
0 FENGYUN 1C DEB
1 31203U 99025BKH 25252.53253228  .02728084  00000-0  18602-1 0  9999
2 31203  98.9363 103.9334 0005232 302.0804  57.9946 15.71365478957032
Epoch: 2025-09-09T12:46Z
TLE epoch observation values (Epoch: 2025-09-09T12:46:50.788Z)
Latitude
-0.00002°
Longitude
-76.60016°
Altitude
356.238 km
Speed
7.696 km/s
True Right ascension
06h 55m 44s
True Declination
0° 00' 00"
Sunlit
Object was in daylight at epoch
Visualization orbit readout
Latitude
Unknown
Longitude
Unknown
Altitude
Unknown
Speed
Unknown
Apparent Right ascension
Unknown
Apparent Declination
Unknown
Sunlit
N/A
Visualization observer readout
Local Sidereal Time
10:18:15
Azimuth
Unknown
Elevation
Unknown
Doppler factor
Unknown
Orbital elements
Apogee altitude
355.486 km
Perigee altitude
348.444 km
Semi-major axis
6,730.102 km
Eccentricity
0.00052
Inclination
98.9363°
RAAN
103.9334°
Arg. of periapsis
302.0804°
True anomaly
58.04546°
Mean anomaly
57.9946°
Eccentric anomaly
58.02003°
Mean motion
3.93107 °/min
Orbital period
91.58 mins
BSTAR
0.018602
Loading maneuver chart data...
Computing Atmospheric mass density...

Documentation

Showing up to 5 results
|